Total_Precipitation_Accumulation
0.00 0.00 0.00 0.00 0.00 0.00 0.01 0.05 0.11 0.16 0.23 0.26 0.25 0.29 0.35 0.41 0.65 1.07 0.54 0.32 0.26 0.16 0.08 0.05 0.06 0.06 0.08 0.11 0.14 0.17 0.16 0.15 0.13 0.13 0.13 0.13 0.12 0.13 0.15 0.15 0.17 0.24 0.27 0.25 0.25 0.27 0.27 0.23 0.18
0.00 0.00 0.00 0.00 0.00 0.00 0.03 0.08 0.17 0.18 0.21 0.25 0.28 0.28 0.27 0.29 0.28 0.29 0.33 0.28 0.21 0.14 0.11 0.06 0.06 0.07 0.06 0.08 0.11 0.15 0.18 0.20 0.20 0.21 0.16 0.14 0.14 0.15 0.15 0.16 0.18 0.22 0.23 0.21 0.20 0.20 0.17 0.15 0.13
0.00 0.00 0.00 0.00 0.00 0.01 0.07 0.15 0.23 0.20 0.21 0.24 0.36 0.41 0.39 0.37 0.35 0.34 0.32 0.24 0.19 0.15 0.16 0.12 0.09 0.08 0.07 0.07 0.11 0.17 0.21 0.22 0.24 0.24 0.20 0.16 0.14 0.14 0.17 0.20 0.24 0.26 0.26 0.27 0.26 0.22 0.15 0.12 0.13
0.00 0.00 0.00 0.00 0.01 0.02 0.06 0.13 0.21 0.22 0.27 0.28 0.32 0.42 0.44 0.42 0.37 0.36 0.35 0.29 0.19 0.16 0.16 0.14 0.15 0.12 0.11 0.11 0.12 0.19 0.24 0.25 0.24 0.23 0.23 0.21 0.17 0.16 0.21 0.28 0.32 0.31 0.30 0.35 0.40 0.33 0.24 0.17 0.15
0.00 0.00 0.00 0.01 0.01 0.04 0.08 0.12 0.17 0.23 0.27 0.27 0.32 0.50 0.68 0.70 0.53 0.46 0.41 0.38 0.29 0.20 0.19 0.21 0.23 0.20 0.19 0.18 0.20 0.24 0.27 0.29 0.30 0.29 0.28 0.29 0.22 0.20 0.25 0.34 0.38 0.38 0.37 0.36 0.33 0.27 0.22 0.19 0.18
0.00 0.00 0.00 0.01 0.04 0.07 0.10 0.12 0.14 0.20 0.29 0.33 0.39 0.63 1.00 1.07 0.85 0.69 0.53 0.56 0.49 0.34 0.24 0.27 0.31 0.33 0.34 0.32 0.33 0.33 0.32 0.33 0.33 0.34 0.34 0.31 0.24 0.22 0.27 0.35 0.42 0.48 0.44 0.37 0.30 0.23 0.19 0.18 0.18
0.00 0.00 0.01 0.01 0.04 0.09 0.12 0.11 0.13 0.19 0.29 0.42 0.47 0.67 1.00 1.11 0.98 0.81 0.77 0.78 0.69 0.58 0.45 0.37 0.37 0.39 0.41 0.41 0.40 0.41 0.40 0.37 0.36 0.35 0.34 0.32 0.28 0.25 0.30 0.37 0.42 0.41 0.35 0.31 0.27 0.23 0.20 0.17 0.15
0.00 0.00 0.01 0.01 0.03 0.08 0.14 0.15 0.18 0.22 0.36 0.43 0.45 0.69 1.14 1.23 1.02 0.93 1.02 0.98 0.97 1.09 1.24 0.83 0.53 0.45 0.42 0.42 0.49 0.53 0.55 0.52 0.46 0.40 0.34 0.32 0.31 0.31 0.36 0.38 0.39 0.36 0.30 0.26 0.25 0.22 0.19 0.17 0.16
0.00 0.00 0.01 0.01 0.03 0.09 0.15 0.17 0.22 0.23 0.40 0.42 0.35 0.57 1.03 1.09 0.96 1.00 1.19 1.34 1.23 1.38 1.61 1.09 0.79 0.68 0.64 0.65 0.62 0.66 0.67 0.62 0.56 0.49 0.45 0.43 0.48 0.62 0.64 0.52 0.53 0.42 0.36 0.32 0.32 0.28 0.24 0.22 0.21
0.00 0.00 0.01 0.02 0.03 0.09 0.16 0.17 0.24 0.32 0.40 0.45 0.43 0.48 0.75 1.07 1.14 1.11 1.27 1.73 1.72 1.49 1.34 1.30 1.25 1.06 0.92 0.90 0.93 0.92 0.80 0.76 0.69 0.74 0.62 0.69 1.02 1.13 0.96 0.91 0.79 0.64 0.54 0.46 0.44 0.44 0.38 0.32 0.31
0.00 0.01 0.02 0.05 0.07 0.10 0.11 0.16 0.26 0.41 0.45 0.49 0.59 0.68 0.95 1.17 1.26 1.34 1.47 1.77 2.08 2.07 1.58 1.43 1.38 1.29 1.18 1.24 1.33 1.30 1.21 1.19 1.08 1.15 1.01 1.10 1.23 1.19 1.20 1.24 1.07 0.98 0.85 0.84 0.86 0.69 0.56 0.53 0.58
0.00 0.01 0.03 0.10 0.11 0.08 0.08 0.18 0.22 0.30 0.50 0.63 0.74 0.89 1.13 1.24 1.39 1.69 1.75 1.92 2.11 2.29 2.04 1.61 1.59 1.61 1.75 1.79 1.67 1.59 1.62 1.60 1.49 1.52 1.36 1.44 1.57 1.59 1.50 1.62 1.53 1.51 1.39 1.36 1.22 1.10 0.94 0.85 0.74
0.01 0.01 0.03 0.05 0.09 0.11 0.10 0.19 0.26 0.26 0.29 0.47 0.62 0.91 1.22 1.11 1.42 1.85 1.92 2.16 2.32 2.27 2.09 1.89 1.98 1.99 2.00 1.99 2.08 1.97 1.91 2.06 2.04 2.03 1.90 1.86 1.78 1.70 1.69 1.71 1.76 1.70 1.77 1.76 1.65 1.42 1.22 1.07 0.92
0.01 0.01 0.02 0.04 0.06 0.11 0.11 0.18 0.24 0.23 0.24 0.37 0.52 0.69 0.92 1.10 1.36 1.68 1.92 2.32 2.38 2.20 2.20 2.14 2.29 2.14 2.06 2.15 2.29 2.26 2.13 2.30 2.49 2.65 2.56 2.26 2.10 2.01 1.99 2.08 2.08 1.87 1.87 1.96 1.98 1.80 1.58 1.33 1.16
0.02 0.02 0.02 0.04 0.03 0.06 0.09 0.18 0.28 0.24 0.27 0.33 0.49 0.58 0.73 1.02 1.27 1.72 2.00 2.35 2.39 2.32 2.25 2.24 2.11 2.23 2.34 2.42 2.39 2.33 2.37 2.51 2.67 2.81 2.88 2.59 2.29 2.30 2.26 2.37 2.37 2.07 1.99 2.11 2.20 2.13 1.97 1.62 1.38
0.03 0.03 0.04 0.05 0.05 0.06 0.11 0.29 0.42 0.42 0.35 0.35 0.46 0.50 0.69 1.07 1.29 1.67 1.95 2.16 2.18 2.31 2.57 2.49 2.10 2.29 2.42 2.47 2.46 2.36 2.45 2.65 2.79 2.80 2.90 2.78 2.46 2.36 2.40 2.35 2.25 2.19 2.24 2.42 2.58 2.50 2.42 2.15 1.89
0.03 0.05 0.08 0.08 0.09 0.09 0.13 0.31 0.46 0.45 0.38 0.39 0.45 0.56 0.74 0.99 1.31 1.62 1.93 2.26 2.34 2.55 2.92 2.61 2.21 2.28 2.35 2.50 2.65 2.52 2.56 2.82 3.04 3.10 2.95 2.67 2.47 2.48 2.59 2.61 2.59 2.54 2.56 2.61 2.56 2.70 2.55 2.58 2.39
0.02 0.05 0.11 0.13 0.13 0.13 0.14 0.24 0.40 0.52 0.51 0.52 0.55 0.69 0.88 0.97 1.09 1.30 1.71 2.13 2.40 2.79 3.26 2.86 2.36 2.38 2.54 2.51 2.50 2.65 2.84 3.11 3.33 3.24 3.04 2.88 2.88 2.86 2.93 2.91 2.97 3.03 3.08 2.91 2.82 2.80 2.61 2.51 2.43
0.02 0.04 0.09 0.13 0.12 0.14 0.18 0.30 0.41 0.57 0.63 0.57 0.66 0.86 0.86 0.85 0.96 1.11 1.55 1.99 2.36 2.81 3.07 3.02 2.78 2.80 2.90 2.97 2.74 2.90 3.18 3.50 3.74 3.66 3.56 3.53 3.48 3.42 3.42 3.42 3.39 3.28 3.23 3.09 2.91 2.74 2.65 2.48 2.27
0.02 0.04 0.07 0.08 0.08 0.09 0.20 0.39 0.57 0.66 0.78 0.76 0.77 0.95 0.90 0.85 0.98 1.19 1.58 1.86 2.29 2.66 2.79 3.04 3.09 3.05 2.89 3.20 3.43 3.65 3.95 4.11 4.37 4.63 4.69 4.56 4.32 4.09 3.90 3.81 3.61 3.30 3.14 3.02 2.83 2.68 2.55 2.34 2.17
0.01 0.01 0.05 0.08 0.08 0.12 0.26 0.62 0.77 0.90 0.89 0.94 0.96 1.11 1.10 1.10 1.20 1.39 1.61 1.79 2.08 2.46 2.71 2.99 3.24 3.26 3.16 3.59 4.16 4.59 4.85 4.85 4.91 4.96 5.03 4.97 4.55 4.18 3.89 3.59 3.41 3.20 3.02 2.88 2.82 2.67 2.55 2.36 2.19
0.00 0.01 0.02 0.05 0.08 0.19 0.25 0.60 0.89 1.02 1.10 1.04 1.06 1.07 1.20 1.10 1.09 1.27 1.49 1.85 1.94 2.22 2.49 2.72 3.05 3.41 3.70 4.12 4.66 5.23 5.51 5.63 5.53 5.22 4.98 4.67 4.24 3.85 3.40 3.16 3.15 3.00 2.80 2.62 2.45 2.30 2.23 2.19 2.12
0.01 0.01 0.02 0.05 0.09 0.18 0.23 0.44 0.83 1.06 1.08 1.08 1.10 1.08 1.10 1.05 0.98 1.08 1.22 1.50 1.75 1.98 2.22 2.51 2.83 3.22 3.86 4.66 5.26 5.65 5.94 5.89 5.48 5.01 4.45 4.00 3.66 3.35 3.06 2.84 2.84 2.75 2.49 2.24 1.99 1.82 1.75 1.76 1.83
0.00 0.01 0.04 0.08 0.12 0.26 0.23 0.41 0.83 1.07 1.10 1.17 1.14 1.15 1.16 1.11 1.05 1.04 1.09 1.31 1.51 1.66 1.90 2.24 2.66 3.00 3.55 4.27 4.91 5.23 5.46 5.41 5.05 4.43 3.89 3.50 3.11 2.79 2.53 2.27 2.12 1.99 1.81 1.70 1.58 1.46 1.42 1.41 1.49
0.01 0.02 0.12 0.25 0.28 0.28 0.25 0.45 0.88 1.06 1.13 1.20 1.23 1.28 1.23 1.17 1.13 1.08 1.04 1.12 1.26 1.39 1.61 1.84 2.20 2.68 3.05 3.43 3.99 4.18 4.25 4.09 3.72 3.44 3.21 2.83 2.46 2.14 1.88 1.68 1.55 1.47 1.40 1.36 1.34 1.30 1.27 1.20 1.18
0.01 0.02 0.15 0.28 0.33 0.40 0.48 0.78 1.17 1.16 1.21 1.22 1.23 1.19 1.16 1.14 1.04 1.00 0.95 1.02 1.15 1.30 1.50 1.64 1.86 2.24 2.56 2.68 2.86 2.87 2.82 2.76 2.62 2.43 2.19 1.95 1.71 1.56 1.42 1.26 1.17 1.15 1.17 1.15 1.16 1.13 1.06 0.98 0.91
0.02 0.03 0.07 0.12 0.19 0.36 0.67 1.04 1.41 1.54 1.44 1.30 1.28 1.17 1.10 1.09 1.01 0.99 0.95 0.98 1.10 1.19 1.35 1.42 1.43 1.58 1.69 1.77 1.85 1.93 1.93 1.82 1.80 1.73 1.54 1.38 1.21 1.09 1.01 0.93 0.91 0.88 0.85 0.81 0.80 0.80 0.80 0.82 0.82
0.02 0.03 0.06 0.12 0.26 0.47 0.75 1.19 1.48 1.75 1.65 1.35 1.21 1.10 1.03 1.02 1.02 1.02 0.99 0.99 0.96 0.99 1.07 1.17 1.18 1.19 1.20 1.24 1.23 1.31 1.32 1.22 1.14 1.06 0.99 0.89 0.78 0.68 0.65 0.61 0.60 0.62 0.65 0.62 0.60 0.64 0.69 0.70 0.72
0.05 0.06 0.07 0.14 0.20 0.37 0.76 1.29 1.42 1.81 1.82 1.61 1.35 1.12 1.09 1.15 1.12 1.06 1.02 0.96 0.88 0.85 0.85 0.92 0.96 1.00 1.05 1.06 1.04 1.03 1.00 0.90 0.83 0.79 0.72 0.62 0.55 0.52 0.50 0.50 0.50 0.50 0.54 0.58 0.63 0.66 0.69 0.74 0.71
0.08 0.09 0.11 0.25 0.27 0.28 0.67 1.46 1.53 1.63 1.77 1.76 1.61 1.38 1.24 1.20 1.13 1.05 0.98 0.97 0.90 0.85 0.79 0.80 0.81 0.77 0.83 0.87 0.93 0.94 0.85 0.77 0.72 0.66 0.60 0.56 0.50 0.48 0.50 0.51 0.49 0.45 0.44 0.48 0.55 0.61 0.62 0.69 0.69